Weather History for Harrison, AR

Change the Weather History Date:

Monday, July 22, 2013

  Actual Average Record
Temperature  
Mean Temperature 76 °F 79 °F  
Max Temperature 85 °F 90 °F 106 °F (1974)
Min Temperature 66 °F 68 °F 45 °F (1947)
Degree Days  
Heating Degree Days 0 0  
Month to date heating degree days 0 0  
Since 1 June heating degree days 5 6  
Since 1 July heating degree days 0 0  
Cooling Degree Days 11 14  
Month to date cooling degree days 267 289  
Year to date cooling degree days 719 693  
Since 1 June cooling degree days 573 554  
Growing Degree Days 24 (Base 50)    
Moisture  
Dew Point 67 °F    
Average Humidity 78    
Maximum Humidity 93    
Minimum Humidity 62    
Precipitation  
Precipitation 0.55 in 0.11 in 1.31 in (1950)
Month to date precipitation 3.66 2.21  
Year to date precipitation 22.74 24.45  
Snow  
Snow 0.00 in 0.00 in - ()
Month to date snowfall 0.0 0.0  
Since 1 June snowfall 0.0 0.0  
Since 1 July snowfall 0.0 0.0  
Snow Depth 0.00 in    
Sea Level Pressure  
Sea Level Pressure 29.92 in    
Wind  
Wind Speed 4 mph (WSW)    
Max Wind Speed 15 mph    
Max Gust Speed 23 mph    
Visibility 8 miles    
Events Rain , Thunderstorm    
T = Trace of Precipitation, MM = Missing Value Source: NWS Daily Summary

Daily Weather History Graph

Daily Weather History Graph

Search for Another Location

Airport:

Trip Planner

Search our weather history database for the weather conditions in past years. The results will help you decide how hot, cold, wet, or windy it might be!

Date:

Astronomy

Jul. 22, 2013 Rise Set
Actual Time 6:11 AM CDT 8:25 PM CDT
Civil Twilight 5:42 AM CDT 8:54 PM CDT
Nautical Twilight 5:07 AM CDT 9:30 PM CDT
Astronomical Twilight 4:28 AM CDT 10:09 PM CDT
Moon 8:15 PM CDT (7/22) 6:07 AM CDT (7/22)
Length of Visible Light 15h 12m
Length of Day
14h 13m
Full, 100% of the Moon is Illuminated
Jul 22
Full
Jul 22
Full
Jul 29
Last Quarter
Aug 6
New
Aug 14
First Quarter

Hourly Weather History & Observations

Time (CDT) Temp. Heat Index Dew Point Humidity Pressure Visibility Wind Dir Wind Speed Gust Speed Precip Events Conditions
12:53 AM 73.0 °F - 71.1 °F 93% 29.86 in 6.0 mi Calm Calm - N/A   Mostly Cloudy
1:26 AM 73.4 °F - 71.6 °F 94% 29.91 in 2.0 mi North 9.2 mph - 0.00 in Rain Light Rain
1:33 AM 73.4 °F - 71.6 °F 94% 29.91 in 1.0 mi NW 5.8 mph - 0.00 in Rain Light Rain
1:39 AM 73.4 °F - 71.6 °F 94% 29.91 in 3.0 mi North 5.8 mph - 0.01 in Rain Light Rain
1:53 AM 73.0 °F - 72.0 °F 96% 29.87 in 8.0 mi WNW 3.5 mph - 0.01 in Thunderstorm Mostly Cloudy
2:09 AM 73.4 °F - 71.6 °F 94% 29.91 in 8.0 mi Calm Calm - N/A   Partly Cloudy
2:23 AM 73.4 °F - 71.6 °F 94% 29.91 in 8.0 mi NNW 3.5 mph - N/A Thunderstorm Mostly Cloudy
2:38 AM 73.4 °F - 71.6 °F 94% 29.91 in 8.0 mi WNW 3.5 mph - N/A   Scattered Clouds
2:53 AM 73.9 °F - 71.1 °F 91% 29.87 in 9.0 mi West 6.9 mph - N/A   Partly Cloudy
3:53 AM 70.0 °F - 64.0 °F 81% 29.84 in 10.0 mi West 4.6 mph - N/A   Clear
4:53 AM 68.0 °F - 64.0 °F 87% 29.86 in 10.0 mi NNE 4.6 mph - N/A   Clear
5:40 AM 69.8 °F - 62.6 °F 78% 29.94 in 10.0 mi NW 9.2 mph - N/A Thunderstorm Scattered Clouds
5:53 AM 69.1 °F - 63.0 °F 81% 29.91 in 9.0 mi WNW 8.1 mph - N/A Thunderstorm Mostly Cloudy
6:15 AM 66.2 °F - 64.4 °F 94% 29.95 in 10.0 mi NW 10.4 mph - 0.01 in Rain , Thunderstorm Light Thunderstorms and Rain
6:32 AM 66.2 °F - 64.4 °F 94% 29.98 in 1.8 mi West 5.8 mph - 0.19 in Rain , Thunderstorm Heavy Thunderstorms and Rain
6:47 AM 66.2 °F - 64.4 °F 94% 29.98 in 3.0 mi WSW 9.2 mph 23.0 mph 0.36 in Rain , Thunderstorm Thunderstorms and Rain
6:53 AM 66.0 °F - 64.9 °F 96% 29.93 in 8.0 mi SW 6.9 mph 23.0 mph 0.37 in Rain , Thunderstorm Light Rain
7:15 AM 66.2 °F - 64.4 °F 94% 29.97 in 10.0 mi SSW 9.2 mph - 0.00 in Rain , Thunderstorm Light Rain
7:49 AM 66.2 °F - 66.2 °F 100% 30.01 in 10.0 mi North 10.4 mph - 0.01 in Rain Light Rain
7:53 AM 66.9 °F - 66.0 °F 97% 29.99 in 10.0 mi WNW 15.0 mph 20.7 mph 0.01 in Rain Light Rain
8:07 AM 66.2 °F - 66.2 °F 100% 30.00 in 6.0 mi WSW 10.4 mph - 0.02 in Rain , Thunderstorm Light Rain
8:22 AM 66.2 °F - 64.4 °F 94% 29.97 in 10.0 mi SSW 5.8 mph - 0.02 in Rain Light Rain
8:53 AM 66.9 °F - 64.0 °F 90% 29.94 in 10.0 mi West 3.5 mph - 0.04 in   Overcast
9:06 AM 68.0 °F - 62.6 °F 83% 29.98 in 2.0 mi Calm Calm - 0.05 in Rain , Thunderstorm Heavy Rain
9:13 AM 68.0 °F - 62.6 °F 83% 29.98 in 1.5 mi NNE 3.5 mph - 0.08 in Rain , Thunderstorm Light Rain
9:16 AM 68.0 °F - 62.6 °F 83% 29.98 in 3.0 mi Calm Calm - 0.08 in Rain , Thunderstorm Light Rain
9:26 AM 66.2 °F - 64.4 °F 94% 29.97 in 4.0 mi SSE 4.6 mph - 0.11 in Rain Heavy Rain
9:40 AM 69.8 °F - 64.4 °F 83% 29.95 in 10.0 mi South 4.6 mph - 0.11 in Thunderstorm Mostly Cloudy
9:53 AM 70.0 °F - 64.0 °F 81% 29.91 in 10.0 mi Calm Calm - 0.11 in   Mostly Cloudy
10:53 AM 75.0 °F - 66.9 °F 76% 29.92 in 10.0 mi ESE 3.5 mph - N/A   Mostly Cloudy
11:23 AM 75.2 °F - 69.8 °F 83% 29.97 in 10.0 mi East 3.5 mph - N/A Thunderstorm Mostly Cloudy
11:32 AM 73.4 °F - 68.0 °F 83% 29.97 in 10.0 mi East 5.8 mph - N/A Thunderstorm Mostly Cloudy
11:53 AM 73.9 °F - 69.1 °F 85% 29.94 in 10.0 mi Calm Calm - 0.00 in Thunderstorm Thunderstorm
12:21 PM 73.4 °F - 69.8 °F 88% 29.99 in 10.0 mi WSW 4.6 mph - N/A   Clear
12:53 PM 73.9 °F - 66.9 °F 79% 29.91 in 10.0 mi SSW 8.1 mph 19.6 mph 0.01 in Rain Light Rain
1:53 PM 75.0 °F - 64.9 °F 71% 29.88 in 10.0 mi South 4.6 mph - 0.00 in   Mostly Cloudy
2:53 PM 75.9 °F - 66.9 °F 74% 29.92 in 10.0 mi WNW 3.5 mph - 0.00 in   Overcast
3:53 PM 80.1 °F 82.1 °F 66.0 °F 62% 29.91 in 10.0 mi Calm Calm - N/A   Clear
4:53 PM 82.9 °F 86.5 °F 69.1 °F 63% 29.88 in 10.0 mi Variable 3.5 mph - N/A   Clear
5:53 PM 82.9 °F 87.0 °F 70.0 °F 65% 29.86 in 10.0 mi South 8.1 mph - N/A   Clear
6:53 PM 81.0 °F 85.2 °F 72.0 °F 74% 29.85 in 10.0 mi South 5.8 mph - N/A   Mostly Cloudy
7:53 PM 81.0 °F 84.4 °F 70.0 °F 69% 29.87 in 10.0 mi Calm Calm - N/A   Partly Cloudy
8:53 PM 78.1 °F - 70.0 °F 76% 29.86 in 10.0 mi South 3.5 mph - N/A   Clear
9:53 PM 73.9 °F - 70.0 °F 87% 29.88 in 10.0 mi SSE 4.6 mph - N/A   Clear
10:53 PM 73.9 °F - 69.1 °F 85% 29.87 in 10.0 mi SE 6.9 mph - N/A   Clear
11:53 PM 73.9 °F - 69.1 °F 85% 29.89 in 10.0 mi Calm Calm - N/A   Clear